Time,TemperatureF,DewpointF,PressureIn,WindDirection,WindDirectionDegrees,WindSpeedMPH,WindSpeedGustMPH,Humidity,HourlyPrecipIn,Conditions,Clouds,dailyrainin,SoftwareType,DateUTC
2013-08-26 00:01:00,60.4,50.5,29.89,South,187,6.0,10.0,70,0.00,,,0.04,meteohub,2013-08-26 06:01:00,
2013-08-26 00:07:00,60.8,50.2,29.89,SSW,194,3.0,8.0,68,0.00,,,0.00,meteohub,2013-08-26 06:07:00,
2013-08-26 00:13:00,61.0,50.4,29.88,SSW,194,3.0,8.0,68,0.00,,,0.00,meteohub,2013-08-26 06:13:00,
2013-08-26 00:19:00,61.0,50.0,29.88,SSW,194,3.0,8.0,67,0.00,,,0.00,meteohub,2013-08-26 06:19:00,
2013-08-26 00:25:00,61.3,49.8,29.88,SSW,194,0.0,7.0,66,0.00,,,0.00,meteohub,2013-08-26 06:25:00,
2013-08-26 00:31:00,61.5,50.0,29.88,SSW,194,0.0,7.0,66,0.00,,,0.00,meteohub,2013-08-26 06:31:00,
2013-08-26 00:37:00,61.3,49.8,29.88,SSW,194,1.0,6.0,66,0.00,,,0.00,meteohub,2013-08-26 06:37:00,
2013-08-26 00:43:00,61.3,49.8,29.88,SSW,194,2.0,4.0,66,0.00,,,0.00,meteohub,2013-08-26 06:43:00,
2013-08-26 00:49:00,61.2,50.2,29.88,SSW,194,0.0,5.0,67,0.00,,,0.00,meteohub,2013-08-26 06:49:00,
2013-08-26 00:55:00,61.2,50.2,29.88,SSW,194,2.0,7.0,67,0.00,,,0.00,meteohub,2013-08-26 06:55:00,
2013-08-26 01:01:00,61.3,49.8,29.88,SSW,194,2.0,7.0,66,0.00,,,0.00,meteohub,2013-08-26 07:01:00,
2013-08-26 01:07:00,61.0,50.0,29.88,SSW,192,5.0,7.0,67,0.00,,,0.00,meteohub,2013-08-26 07:07:00,
2013-08-26 01:13:00,60.4,49.5,29.89,South,183,4.0,7.0,67,0.00,,,0.00,meteohub,2013-08-26 07:13:00,
2013-08-26 01:19:00,60.3,49.6,29.89,South,183,1.0,8.0,68,0.00,,,0.00,meteohub,2013-08-26 07:19:00,
2013-08-26 01:25:00,59.9,49.3,29.88,South,173,7.0,10.0,68,0.00,,,0.00,meteohub,2013-08-26 07:25:00,
2013-08-26 01:31:00,59.9,49.3,29.88,SSE,162,6.0,12.0,68,0.00,,,0.00,meteohub,2013-08-26 07:31:00,
2013-08-26 01:37:00,60.1,49.8,29.88,South,174,5.0,12.0,69,0.00,,,0.00,meteohub,2013-08-26 07:37:00,
2013-08-26 01:43:00,59.5,50.5,29.88,South,174,5.0,12.0,72,0.00,,,0.00,meteohub,2013-08-26 07:43:00,
2013-08-26 01:49:00,59.0,50.4,29.88,South,173,5.0,12.0,73,0.00,,,0.00,meteohub,2013-08-26 07:49:00,
2013-08-26 01:55:00,58.6,50.4,29.88,South,173,3.0,8.0,74,0.00,,,0.00,meteohub,2013-08-26 07:55:00,
2013-08-26 02:01:00,58.6,49.6,29.88,SSE,165,7.0,7.0,72,0.00,,,0.00,meteohub,2013-08-26 08:01:00,
2013-08-26 02:07:00,59.0,50.4,29.88,South,189,10.0,12.0,73,0.00,,,0.00,meteohub,2013-08-26 08:07:00,
2013-08-26 02:14:00,59.4,51.1,29.88,SSW,195,9.0,13.0,74,0.00,,,0.00,meteohub,2013-08-26 08:14:00,
2013-08-26 02:20:00,59.4,51.1,29.88,SSW,192,9.0,13.0,74,0.00,,,0.00,meteohub,2013-08-26 08:20:00,
2013-08-26 02:26:00,59.4,51.4,29.88,SSW,211,8.0,17.0,75,0.00,,,0.00,meteohub,2013-08-26 08:26:00,
2013-08-26 02:32:00,59.4,51.4,29.88,SSW,193,11.0,17.0,75,0.00,,,0.00,meteohub,2013-08-26 08:32:00,
2013-08-26 02:38:00,59.4,51.4,29.88,SSW,202,7.0,17.0,75,0.00,,,0.00,meteohub,2013-08-26 08:38:00,
2013-08-26 02:44:00,59.4,51.4,29.88,SW,214,5.0,15.0,75,0.00,,,0.00,meteohub,2013-08-26 08:44:00,
2013-08-26 02:50:00,59.5,50.9,29.88,SW,224,10.0,15.0,73,0.00,,,0.00,meteohub,2013-08-26 08:50:00,
2013-08-26 02:56:00,59.5,50.5,29.88,SSW,209,8.0,14.0,72,0.00,,,0.00,meteohub,2013-08-26 08:56:00,
2013-08-26 03:02:00,59.9,50.2,29.88,SSW,210,6.0,14.0,70,0.00,,,0.00,meteohub,2013-08-26 09:02:00,
2013-08-26 03:08:00,59.7,49.5,29.88,SSW,207,1.0,14.0,69,0.00,,,0.00,meteohub,2013-08-26 09:08:00,
2013-08-26 03:14:00,59.5,49.3,29.87,SSW,207,1.0,14.0,69,0.00,,,0.00,meteohub,2013-08-26 09:14:00,
2013-08-26 03:20:00,59.5,48.9,29.87,SSW,207,4.0,10.0,68,0.00,,,0.00,meteohub,2013-08-26 09:20:00,
2013-08-26 03:26:00,59.5,48.9,29.87,SW,225,7.0,8.0,68,0.00,,,0.00,meteohub,2013-08-26 09:26:00,
2013-08-26 03:32:00,59.5,48.9,29.88,SW,225,9.0,14.0,68,0.00,,,0.00,meteohub,2013-08-26 09:32:00,
2013-08-26 03:38:00,59.7,49.1,29.87,SSW,193,9.0,14.0,68,0.00,,,0.00,meteohub,2013-08-26 09:38:00,
2013-08-26 03:44:00,60.1,49.1,29.87,SSW,203,5.0,14.0,67,0.00,,,0.00,meteohub,2013-08-26 09:44:00,
2013-08-26 03:50:00,60.4,49.1,29.88,SW,219,0.0,10.0,66,0.00,,,0.00,meteohub,2013-08-26 09:50:00,
2013-08-26 03:56:00,60.1,49.1,29.87,SW,219,3.0,7.0,67,0.00,,,0.00,meteohub,2013-08-26 09:56:00,
2013-08-26 04:02:00,59.9,48.6,29.88,SW,227,3.0,7.0,66,0.00,,,0.00,meteohub,2013-08-26 10:02:00,
2013-08-26 04:08:00,60.3,48.9,29.88,SSW,206,5.0,11.0,66,0.00,,,0.00,meteohub,2013-08-26 10:08:00,
2013-08-26 04:14:00,60.6,48.7,29.88,SW,219,6.0,11.0,65,0.00,,,0.00,meteohub,2013-08-26 10:14:00,
2013-08-26 04:20:00,61.0,48.7,29.88,West,259,3.0,11.0,64,0.00,,,0.00,meteohub,2013-08-26 10:20:00,
2013-08-26 04:26:00,60.8,49.5,29.88,SSW,208,1.0,11.0,66,0.00,,,0.00,meteohub,2013-08-26 10:26:00,
2013-08-26 04:32:00,60.4,49.5,29.88,SSW,192,9.0,12.0,67,0.00,,,0.00,meteohub,2013-08-26 10:32:00,
2013-08-26 04:38:00,59.9,49.3,29.88,SSW,209,7.0,13.0,68,0.00,,,0.00,meteohub,2013-08-26 10:38:00,
2013-08-26 04:44:00,59.5,49.8,29.88,South,191,7.0,13.0,70,0.00,,,0.00,meteohub,2013-08-26 10:44:00,
2013-08-26 04:50:00,59.4,49.6,29.88,SSW,193,5.0,13.0,70,0.00,,,0.00,meteohub,2013-08-26 10:50:00,
2013-08-26 04:56:00,58.8,49.5,29.88,SSW,193,3.0,11.0,71,0.00,,,0.00,meteohub,2013-08-26 10:56:00,
2013-08-26 05:02:00,58.6,49.3,29.88,SSW,193,0.0,10.0,71,0.00,,,0.00,meteohub,2013-08-26 11:02:00,
2013-08-26 05:08:00,58.5,49.5,29.88,South,189,6.0,6.0,72,0.00,,,0.00,meteohub,2013-08-26 11:08:00,
2013-08-26 05:14:00,58.3,49.3,29.88,South,187,0.0,7.0,72,0.00,,,0.00,meteohub,2013-08-26 11:14:00,
2013-08-26 05:20:00,58.3,48.9,29.89,South,187,1.0,7.0,71,0.00,,,0.00,meteohub,2013-08-26 11:20:00,
2013-08-26 05:26:00,58.5,48.7,29.88,South,187,4.0,6.0,70,0.00,,,0.00,meteohub,2013-08-26 11:26:00,
2013-08-26 05:32:00,58.6,48.6,29.88,South,187,4.0,5.0,69,0.00,,,0.00,meteohub,2013-08-26 11:32:00,
2013-08-26 05:38:00,59.4,49.1,29.88,SW,222,3.0,9.0,69,0.00,,,0.00,meteohub,2013-08-26 11:38:00,
2013-08-26 05:44:00,59.2,49.1,29.88,SSW,210,2.0,9.0,69,0.00,,,0.00,meteohub,2013-08-26 11:44:00,
2013-08-26 05:50:00,59.2,49.5,29.88,SSE,158,2.0,9.0,70,0.00,,,0.00,meteohub,2013-08-26 11:50:00,
2013-08-26 05:57:00,58.8,49.1,29.88,South,187,6.0,10.0,70,0.00,,,0.00,meteohub,2013-08-26 11:57:00,
2013-08-26 06:02:00,58.8,49.1,29.88,SSE,168,0.0,10.0,70,0.00,,,0.00,meteohub,2013-08-26 12:02:00,
2013-08-26 06:09:00,58.5,48.7,29.88,SSE,168,0.0,10.0,70,0.00,,,0.00,meteohub,2013-08-26 12:09:00,
2013-08-26 06:15:00,58.5,48.7,29.88,SSE,168,0.0,8.0,70,0.00,,,0.00,meteohub,2013-08-26 12:15:00,
2013-08-26 06:21:00,57.9,48.6,29.88,SSE,168,4.0,4.0,71,0.00,,,0.00,meteohub,2013-08-26 12:21:00,
2013-08-26 06:27:00,57.6,48.2,29.88,SSE,168,6.0,6.0,71,0.00,,,0.00,meteohub,2013-08-26 12:27:00,
2013-08-26 06:33:00,57.6,48.9,29.88,SSW,213,3.0,6.0,73,0.00,,,0.00,meteohub,2013-08-26 12:33:00,
2013-08-26 06:39:00,57.7,49.1,29.88,South,183,12.0,12.0,73,0.00,,,0.00,meteohub,2013-08-26 12:39:00,
2013-08-26 06:45:00,58.3,50.0,29.88,SSW,194,9.0,15.0,74,0.00,,,0.00,meteohub,2013-08-26 12:45:00,
2013-08-26 06:51:00,58.3,50.4,29.88,South,171,7.0,16.0,75,0.00,,,0.00,meteohub,2013-08-26 12:51:00,
2013-08-26 06:57:00,58.5,50.5,29.88,SSW,193,9.0,16.0,75,0.00,,,0.00,meteohub,2013-08-26 12:57:00,
2013-08-26 07:03:00,58.6,50.7,29.88,South,178,6.0,16.0,75,0.00,,,0.00,meteohub,2013-08-26 13:03:00,
2013-08-26 07:09:00,59.0,50.7,29.88,South,178,7.0,16.0,74,0.00,,,0.00,meteohub,2013-08-26 13:09:00,
2013-08-26 07:15:00,59.2,50.9,29.88,South,191,8.0,14.0,74,0.00,,,0.00,meteohub,2013-08-26 13:15:00,
2013-08-26 07:21:00,59.5,50.9,29.88,South,178,7.0,15.0,73,0.00,,,0.00,meteohub,2013-08-26 13:21:00,
2013-08-26 07:27:00,60.1,51.1,29.89,SSW,198,7.0,15.0,72,0.00,,,0.00,meteohub,2013-08-26 13:27:00,
2013-08-26 07:33:00,60.3,51.3,29.89,South,183,8.0,15.0,72,0.00,,,0.00,meteohub,2013-08-26 13:33:00,
2013-08-26 07:39:00,60.3,51.3,29.89,SSW,194,9.0,16.0,72,0.00,,,0.00,meteohub,2013-08-26 13:39:00,
2013-08-26 07:45:00,60.3,50.9,29.89,SSW,212,9.0,16.0,71,0.00,,,0.00,meteohub,2013-08-26 13:45:00,
2013-08-26 07:51:00,60.6,51.1,29.88,SSW,197,10.0,15.0,71,0.00,,,0.00,meteohub,2013-08-26 13:51:00,
2013-08-26 07:57:00,61.2,51.3,29.88,SSW,202,6.0,15.0,70,0.00,,,0.00,meteohub,2013-08-26 13:57:00,
2013-08-26 08:03:00,61.0,50.7,29.88,South,178,13.0,14.0,69,0.00,,,0.00,meteohub,2013-08-26 14:03:00,
2013-08-26 08:09:00,61.3,50.7,29.88,South,191,8.0,17.0,68,0.00,,,0.00,meteohub,2013-08-26 14:09:00,
2013-08-26 08:15:00,61.9,51.3,29.88,SSW,192,6.0,17.0,68,0.00,,,0.00,meteohub,2013-08-26 14:15:00,
2013-08-26 08:21:00,62.8,51.3,29.87,SSW,207,5.0,13.0,66,0.00,,,0.00,meteohub,2013-08-26 14:21:00,
2013-08-26 08:27:00,63.7,51.3,29.87,SSW,198,8.0,11.0,64,0.00,,,0.00,meteohub,2013-08-26 14:27:00,
2013-08-26 08:33:00,64.2,50.9,29.87,South,182,11.0,12.0,62,0.00,,,0.00,meteohub,2013-08-26 14:33:00,
2013-08-26 08:39:00,64.2,51.4,29.87,SSW,196,10.0,13.0,63,0.00,,,0.00,meteohub,2013-08-26 14:39:00,
2013-08-26 08:45:00,64.4,51.6,29.87,South,181,9.0,14.0,63,0.00,,,0.00,meteohub,2013-08-26 14:45:00,
2013-08-26 08:51:00,64.6,51.3,29.86,SSW,192,9.0,14.0,62,0.00,,,0.00,meteohub,2013-08-26 14:51:00,
2013-08-26 08:57:00,64.9,51.6,29.86,SSW,201,6.0,15.0,62,0.00,,,0.00,meteohub,2013-08-26 14:57:00,
2013-08-26 09:03:00,65.7,51.4,29.86,SSW,195,9.0,16.0,60,0.00,,,0.00,meteohub,2013-08-26 15:03:00,
2013-08-26 09:09:00,66.0,51.3,29.86,South,178,11.0,16.0,59,0.00,,,0.00,meteohub,2013-08-26 15:09:00,
2013-08-26 09:15:00,66.4,51.6,29.86,SSW,200,14.0,18.0,59,0.00,,,0.00,meteohub,2013-08-26 15:15:00,
2013-08-26 09:21:00,66.4,50.7,29.86,South,191,13.0,18.0,57,0.00,,,0.00,meteohub,2013-08-26 15:21:00,
2013-08-26 09:27:00,66.7,51.1,29.86,South,181,12.0,18.0,57,0.00,,,0.00,meteohub,2013-08-26 15:27:00,
2013-08-26 09:33:00,66.9,51.3,29.86,South,175,13.0,18.0,57,0.00,,,0.00,meteohub,2013-08-26 15:33:00,
2013-08-26 09:40:00,67.5,51.3,29.86,South,169,10.0,17.0,56,0.00,,,0.00,meteohub,2013-08-26 15:40:00,
2013-08-26 09:46:00,67.6,51.4,29.86,South,174,13.0,17.0,56,0.00,,,0.00,meteohub,2013-08-26 15:46:00,
2013-08-26 09:52:00,67.8,51.1,29.86,South,191,11.0,19.0,55,0.00,,,0.00,meteohub,2013-08-26 15:52:00,
2013-08-26 09:58:00,68.4,51.1,29.86,South,171,13.0,19.0,54,0.00,,,0.00,meteohub,2013-08-26 15:58:00,
2013-08-26 10:04:00,68.5,50.7,29.86,SSW,193,12.0,21.0,53,0.00,,,0.00,meteohub,2013-08-26 16:04:00,
2013-08-26 10:10:00,69.1,51.8,29.86,South,188,9.0,21.0,54,0.00,,,0.00,meteohub,2013-08-26 16:10:00,
2013-08-26 10:16:00,69.6,51.8,29.86,South,186,11.0,18.0,53,0.00,,,0.00,meteohub,2013-08-26 16:16:00,
2013-08-26 10:22:00,69.6,51.8,29.85,South,189,8.0,17.0,53,0.00,,,0.00,meteohub,2013-08-26 16:22:00,
2013-08-26 10:28:00,70.0,51.6,29.85,South,182,8.0,18.0,52,0.00,,,0.00,meteohub,2013-08-26 16:28:00,
2013-08-26 10:34:00,70.0,51.6,29.85,South,191,7.0,22.0,52,0.00,,,0.00,meteohub,2013-08-26 16:34:00,
2013-08-26 10:40:00,70.3,51.8,29.85,South,190,17.0,23.0,52,0.00,,,0.00,meteohub,2013-08-26 16:40:00,
2013-08-26 10:46:00,70.5,50.9,29.85,South,176,13.0,23.0,50,0.00,,,0.00,meteohub,2013-08-26 16:46:00,
2013-08-26 10:52:00,70.9,51.8,29.85,SW,214,5.0,22.0,51,0.00,,,0.00,meteohub,2013-08-26 16:52:00,
2013-08-26 10:58:00,71.6,52.0,29.85,SSW,200,10.0,22.0,50,0.00,,,0.00,meteohub,2013-08-26 16:58:00,
2013-08-26 11:04:00,71.8,51.6,29.84,SW,214,13.0,22.0,49,0.00,,,0.00,meteohub,2013-08-26 17:04:00,
2013-08-26 11:10:00,72.1,50.7,29.84,South,180,12.0,20.0,47,0.00,,,0.00,meteohub,2013-08-26 17:10:00,
2013-08-26 11:16:00,72.7,51.3,29.84,SSW,197,10.0,19.0,47,0.00,,,0.00,meteohub,2013-08-26 17:16:00,
2013-08-26 11:22:00,73.0,51.6,29.84,SSW,205,9.0,19.0,47,0.00,,,0.00,meteohub,2013-08-26 17:22:00,
2013-08-26 11:28:00,73.8,51.6,29.84,SW,216,7.0,18.0,46,0.00,,,0.00,meteohub,2013-08-26 17:28:00,
2013-08-26 11:34:00,74.1,50.9,29.83,SSE,164,6.0,18.0,44,0.00,,,0.00,meteohub,2013-08-26 17:34:00,
2013-08-26 11:40:00,73.9,51.3,29.83,SSW,194,7.0,17.0,45,0.00,,,0.00,meteohub,2013-08-26 17:40:00,
2013-08-26 11:46:00,73.8,51.1,29.83,SW,215,8.0,17.0,45,0.00,,,0.00,meteohub,2013-08-26 17:46:00,
2013-08-26 11:52:00,74.1,50.2,29.83,SW,218,15.0,17.0,43,0.00,,,0.00,meteohub,2013-08-26 17:52:00,
2013-08-26 11:58:00,72.9,50.4,29.83,SSW,205,14.0,20.0,45,0.00,,,0.00,meteohub,2013-08-26 17:58:00,
2013-08-26 12:04:00,73.6,50.9,29.83,SSW,201,14.0,20.0,45,0.00,,,0.00,meteohub,2013-08-26 18:04:00,
2013-08-26 12:10:00,74.1,50.9,29.82,South,191,14.0,20.0,44,0.00,,,0.00,meteohub,2013-08-26 18:10:00,
2013-08-26 12:16:00,73.4,49.5,29.82,South,172,7.0,19.0,43,0.00,,,0.00,meteohub,2013-08-26 18:16:00,
2013-08-26 12:22:00,73.0,49.8,29.82,South,189,11.0,19.0,44,0.00,,,0.00,meteohub,2013-08-26 18:22:00,
2013-08-26 12:28:00,74.1,50.9,29.81,South,170,15.0,19.0,44,0.00,,,0.00,meteohub,2013-08-26 18:28:00,
2013-08-26 12:34:00,75.2,51.1,29.81,South,188,11.0,19.0,43,0.00,,,0.00,meteohub,2013-08-26 18:34:00,
2013-08-26 12:40:00,75.4,51.3,29.81,SSW,206,13.0,23.0,43,0.00,,,0.00,meteohub,2013-08-26 18:40:00,
2013-08-26 12:46:00,75.6,51.4,29.81,South,172,10.0,22.0,43,0.00,,,0.00,meteohub,2013-08-26 18:46:00,
2013-08-26 12:52:00,75.9,51.8,29.81,South,186,13.0,22.0,43,0.00,,,0.00,meteohub,2013-08-26 18:52:00,
2013-08-26 12:58:00,77.4,51.1,29.81,SSE,162,14.0,19.0,40,0.00,,,0.00,meteohub,2013-08-26 18:58:00,
2013-08-26 13:04:00,77.2,51.6,29.80,SSW,194,15.0,18.0,41,0.00,,,0.00,meteohub,2013-08-26 19:04:00,
2013-08-26 13:10:00,77.0,50.9,29.79,South,189,13.0,18.0,40,0.00,,,0.00,meteohub,2013-08-26 19:10:00,
2013-08-26 13:16:00,76.8,51.3,29.79,SSW,193,9.0,22.0,41,0.00,,,0.00,meteohub,2013-08-26 19:16:00,
2013-08-26 13:22:00,76.6,51.3,29.79,South,190,13.0,22.0,41,0.00,,,0.00,meteohub,2013-08-26 19:22:00,
2013-08-26 13:29:00,76.3,52.2,29.79,SSE,168,19.0,22.0,43,0.00,,,0.00,meteohub,2013-08-26 19:29:00,
2013-08-26 13:35:00,75.9,51.8,29.79,South,175,10.0,24.0,43,0.00,,,0.00,meteohub,2013-08-26 19:35:00,
2013-08-26 13:41:00,76.3,51.4,29.79,South,189,14.0,24.0,42,0.00,,,0.00,meteohub,2013-08-26 19:41:00,
2013-08-26 13:47:00,76.6,51.8,29.79,South,178,14.0,23.0,42,0.00,,,0.00,meteohub,2013-08-26 19:47:00,
2013-08-26 13:53:00,75.9,51.3,29.79,SSW,203,11.0,23.0,42,0.00,,,0.00,meteohub,2013-08-26 19:53:00,
2013-08-26 13:59:00,75.6,50.2,29.79,SSW,201,15.0,23.0,41,0.00,,,0.00,meteohub,2013-08-26 19:59:00,
2013-08-26 14:05:00,75.2,51.8,29.78,SSW,200,9.0,21.0,44,0.00,,,0.00,meteohub,2013-08-26 20:05:00,
2013-08-26 14:11:00,76.5,51.1,29.78,SSE,158,12.0,21.0,41,0.00,,,0.00,meteohub,2013-08-26 20:11:00,
2013-08-26 14:17:00,77.4,50.5,29.78,SSW,207,10.0,20.0,39,0.00,,,0.00,meteohub,2013-08-26 20:17:00,
2013-08-26 14:23:00,77.7,50.7,29.78,South,190,17.0,20.0,39,0.00,,,0.00,meteohub,2013-08-26 20:23:00,
2013-08-26 14:29:00,77.7,52.2,29.78,SSW,192,12.0,20.0,41,0.00,,,0.00,meteohub,2013-08-26 20:29:00,
2013-08-26 14:35:00,78.8,50.4,29.78,South,180,9.0,20.0,37,0.00,,,0.00,meteohub,2013-08-26 20:35:00,
2013-08-26 14:41:00,76.5,51.1,29.78,South,189,13.0,21.0,41,0.00,,,0.00,meteohub,2013-08-26 20:41:00,
2013-08-26 14:47:00,74.5,51.1,29.78,South,186,15.0,21.0,44,0.00,,,0.00,meteohub,2013-08-26 20:47:00,
2013-08-26 14:53:00,73.6,52.2,29.78,SSE,158,16.0,22.0,47,0.00,,,0.00,meteohub,2013-08-26 20:53:00,
2013-08-26 14:59:00,73.0,52.7,29.78,SSW,197,16.0,22.0,49,0.00,,,0.00,meteohub,2013-08-26 20:59:00,
2013-08-26 15:05:00,73.0,52.7,29.78,South,169,9.0,22.0,49,0.00,,,0.00,meteohub,2013-08-26 21:05:00,
2013-08-26 15:11:00,74.7,53.1,29.77,South,187,7.0,20.0,47,0.00,,,0.00,meteohub,2013-08-26 21:11:00,
2013-08-26 15:17:00,75.4,52.5,29.78,SSW,201,14.0,19.0,45,0.00,,,0.00,meteohub,2013-08-26 21:17:00,
2013-08-26 15:23:00,75.0,51.6,29.77,South,187,8.0,18.0,44,0.00,,,0.00,meteohub,2013-08-26 21:23:00,
2013-08-26 15:29:00,74.7,51.3,29.77,SSW,195,10.0,19.0,44,0.00,,,0.00,meteohub,2013-08-26 21:29:00,
2013-08-26 15:35:00,75.4,50.7,29.76,SSE,162,14.0,18.0,42,0.00,,,0.00,meteohub,2013-08-26 21:35:00,
2013-08-26 15:41:00,75.7,51.1,29.77,SSE,168,8.0,18.0,42,0.00,,,0.00,meteohub,2013-08-26 21:41:00,
2013-08-26 15:47:00,76.5,51.6,29.76,SSE,161,12.0,18.0,42,0.00,,,0.00,meteohub,2013-08-26 21:47:00,
2013-08-26 15:53:00,76.8,50.7,29.77,SSW,199,9.0,18.0,40,0.00,,,0.00,meteohub,2013-08-26 21:53:00,
2013-08-26 15:59:00,77.7,50.0,29.77,South,181,14.0,18.0,38,0.00,,,0.00,meteohub,2013-08-26 21:59:00,
2013-08-26 16:05:00,77.7,50.7,29.76,South,178,10.0,20.0,39,0.00,,,0.00,meteohub,2013-08-26 22:05:00,
2013-08-26 16:11:00,76.5,50.4,29.76,South,190,10.0,20.0,40,0.00,,,0.00,meteohub,2013-08-26 22:11:00,
2013-08-26 16:17:00,76.3,51.4,29.76,South,180,14.0,20.0,42,0.00,,,0.00,meteohub,2013-08-26 22:17:00,
2013-08-26 16:23:00,76.8,50.0,29.76,South,190,14.0,20.0,39,0.00,,,0.00,meteohub,2013-08-26 22:23:00,
2013-08-26 16:29:00,76.8,50.7,29.75,South,180,12.0,20.0,40,0.00,,,0.00,meteohub,2013-08-26 22:29:00,
2013-08-26 16:35:00,76.8,50.7,29.75,South,188,14.0,21.0,40,0.00,,,0.00,meteohub,2013-08-26 22:35:00,
2013-08-26 16:41:00,77.4,50.5,29.75,SSE,168,7.0,21.0,39,0.00,,,0.00,meteohub,2013-08-26 22:41:00,
2013-08-26 16:47:00,77.5,49.3,29.75,South,178,12.0,21.0,37,0.00,,,0.00,meteohub,2013-08-26 22:47:00,
2013-08-26 16:53:00,77.7,50.0,29.75,South,178,17.0,18.0,38,0.00,,,0.00,meteohub,2013-08-26 22:53:00,
2013-08-26 16:59:00,78.1,49.6,29.74,South,185,10.0,18.0,37,0.00,,,0.00,meteohub,2013-08-26 22:59:00,
2013-08-26 17:06:00,77.0,46.4,29.75,South,178,11.0,18.0,34,0.00,,,0.00,meteohub,2013-08-26 23:06:00,
2013-08-26 17:12:00,77.0,48.0,29.75,SSW,195,9.0,16.0,36,0.00,,,0.00,meteohub,2013-08-26 23:12:00,
2013-08-26 17:18:00,77.4,48.4,29.74,South,189,7.0,14.0,36,0.00,,,0.00,meteohub,2013-08-26 23:18:00,
2013-08-26 17:24:00,77.5,47.7,29.74,South,188,10.0,14.0,35,0.00,,,0.00,meteohub,2013-08-26 23:24:00,
2013-08-26 17:30:00,76.6,48.4,29.74,South,189,6.0,14.0,37,0.00,,,0.00,meteohub,2013-08-26 23:30:00,
2013-08-26 17:36:00,76.1,48.0,29.74,South,186,7.0,12.0,37,0.00,,,0.00,meteohub,2013-08-26 23:36:00,
2013-08-26 17:42:00,75.2,48.6,29.74,South,187,6.0,11.0,39,0.00,,,0.00,meteohub,2013-08-26 23:42:00,
2013-08-26 17:48:00,74.3,49.1,29.74,SSW,193,6.0,11.0,41,0.00,,,0.00,meteohub,2013-08-26 23:48:00,
2013-08-26 17:54:00,73.8,49.3,29.74,SSW,193,4.0,9.0,42,0.00,,,0.00,meteohub,2013-08-26 23:54:00,
2013-08-26 18:00:00,73.4,48.9,29.73,SW,233,6.0,8.0,42,0.00,,,0.00,meteohub,2013-08-27 00:00:00,
2013-08-26 18:06:00,73.2,49.5,29.73,SW,234,10.0,14.0,43,0.00,,,0.00,meteohub,2013-08-27 00:06:00,
2013-08-26 18:12:00,72.9,49.1,29.73,WSW,239,6.0,14.0,43,0.00,,,0.00,meteohub,2013-08-27 00:12:00,
2013-08-26 18:18:00,72.9,49.6,29.73,WSW,254,9.0,14.0,44,0.00,,,0.00,meteohub,2013-08-27 00:18:00,
2013-08-26 18:24:00,72.7,48.2,29.73,WSW,246,8.0,14.0,42,0.00,,,0.00,meteohub,2013-08-27 00:24:00,
2013-08-26 18:30:00,72.3,48.0,29.73,WSW,244,6.0,12.0,42,0.00,,,0.00,meteohub,2013-08-27 00:30:00,
2013-08-26 18:36:00,71.4,50.2,29.73,WSW,239,7.0,13.0,47,0.00,,,0.00,meteohub,2013-08-27 00:36:00,
2013-08-26 18:42:00,71.2,50.0,29.73,WSW,248,6.0,13.0,47,0.00,,,0.00,meteohub,2013-08-27 00:42:00,
2013-08-26 18:48:00,71.2,48.2,29.73,WSW,248,5.0,13.0,44,0.00,,,0.00,meteohub,2013-08-27 00:48:00,
2013-08-26 18:54:00,71.4,48.4,29.73,WSW,255,6.0,9.0,44,0.00,,,0.00,meteohub,2013-08-27 00:54:00,
2013-08-26 19:00:00,71.1,49.3,29.73,WSW,254,6.0,10.0,46,0.00,,,0.00,meteohub,2013-08-27 01:00:00,
2013-08-26 19:06:00,70.9,49.6,29.73,WSW,251,4.0,11.0,47,0.00,,,0.00,meteohub,2013-08-27 01:06:00,
2013-08-26 19:12:00,70.9,49.1,29.73,WSW,249,4.0,11.0,46,0.00,,,0.00,meteohub,2013-08-27 01:12:00,
2013-08-26 19:18:00,71.1,49.3,29.73,WSW,253,7.0,11.0,46,0.00,,,0.00,meteohub,2013-08-27 01:18:00,
2013-08-26 19:24:00,70.9,49.1,29.73,WSW,255,5.0,10.0,46,0.00,,,0.00,meteohub,2013-08-27 01:24:00,
2013-08-26 19:30:00,70.5,47.5,29.73,WSW,255,8.0,10.0,44,0.00,,,0.00,meteohub,2013-08-27 01:30:00,
2013-08-26 19:36:00,70.5,48.7,29.73,WSW,255,4.0,9.0,46,0.00,,,0.00,meteohub,2013-08-27 01:36:00,
2013-08-26 19:42:00,70.2,48.4,29.73,WSW,255,3.0,8.0,46,0.00,,,0.00,meteohub,2013-08-27 01:42:00,
2013-08-26 19:48:00,70.0,48.2,29.73,WSW,255,3.0,8.0,46,0.00,,,0.00,meteohub,2013-08-27 01:48:00,
2013-08-26 19:54:00,69.8,48.0,29.73,WSW,255,1.0,8.0,46,0.00,,,0.00,meteohub,2013-08-27 01:54:00,
2013-08-26 20:00:00,69.4,47.1,29.73,WSW,255,2.0,5.0,45,0.00,,,0.00,meteohub,2013-08-27 02:00:00,
2013-08-26 20:06:00,69.3,46.9,29.74,WSW,255,0.0,4.0,45,0.00,,,0.00,meteohub,2013-08-27 02:06:00,
2013-08-26 20:12:00,68.9,47.3,29.74,WSW,255,0.0,4.0,46,0.00,,,0.00,meteohub,2013-08-27 02:12:00,
2013-08-26 20:18:00,68.4,46.8,29.74,WSW,255,0.0,4.0,46,0.00,,,0.00,meteohub,2013-08-27 02:18:00,
2013-08-26 20:24:00,68.0,46.9,29.75,WSW,255,0.0,2.0,47,0.00,,,0.00,meteohub,2013-08-27 02:24:00,
2013-08-26 20:30:00,67.5,46.6,29.75,WSW,255,0.0,2.0,47,0.00,,,0.00,meteohub,2013-08-27 02:30:00,
2013-08-26 20:36:00,67.3,46.9,29.75,WSW,255,0.0,2.0,48,0.00,,,0.00,meteohub,2013-08-27 02:36:00,
2013-08-26 20:42:00,67.5,47.7,29.75,WSW,255,0.0,2.0,49,0.00,,,0.00,meteohub,2013-08-27 02:42:00,
2013-08-26 20:49:00,66.9,47.1,29.75,WSW,255,0.0,2.0,49,0.00,,,0.00,meteohub,2013-08-27 02:49:00,
2013-08-26 20:55:00,66.7,48.0,29.75,WSW,255,3.0,3.0,51,0.00,,,0.00,meteohub,2013-08-27 02:55:00,
2013-08-26 21:01:00,66.6,48.4,29.75,WSW,255,0.0,4.0,52,0.00,,,0.00,meteohub,2013-08-27 03:01:00,
2013-08-26 21:07:00,66.4,48.7,29.75,WSW,255,1.0,4.0,53,0.00,,,0.00,meteohub,2013-08-27 03:07:00,
2013-08-26 21:13:00,66.2,48.6,29.75,WSW,255,2.0,4.0,53,0.00,,,0.00,meteohub,2013-08-27 03:13:00,
2013-08-26 21:19:00,66.0,48.9,29.76,WSW,255,0.0,4.0,54,0.00,,,0.00,meteohub,2013-08-27 03:19:00,
2013-08-26 21:25:00,65.7,49.1,29.75,WSW,255,2.0,4.0,55,0.00,,,0.00,meteohub,2013-08-27 03:25:00,
2013-08-26 21:31:00,65.3,48.7,29.75,WSW,255,2.0,5.0,55,0.00,,,0.00,meteohub,2013-08-27 03:31:00,
2013-08-26 21:37:00,65.1,49.1,29.76,WSW,255,4.0,5.0,56,0.00,,,0.00,meteohub,2013-08-27 03:37:00,
2013-08-26 21:43:00,64.8,48.7,29.76,WSW,255,0.0,5.0,56,0.00,,,0.00,meteohub,2013-08-27 03:43:00,
2013-08-26 21:49:00,64.2,48.7,29.76,WSW,255,2.0,5.0,57,0.00,,,0.00,meteohub,2013-08-27 03:49:00,
2013-08-26 21:55:00,63.9,48.4,29.76,WSW,255,0.0,5.0,57,0.00,,,0.00,meteohub,2013-08-27 03:55:00,
2013-08-26 22:01:00,63.1,48.6,29.76,WSW,255,0.0,4.0,59,0.00,,,0.00,meteohub,2013-08-27 04:01:00,
2013-08-26 22:02:00,63.1,48.6,29.76,WSW,255,0.0,4.0,59,0.00,,,0.00,meteohub,2013-08-27 04:02:00,
2013-08-26 22:07:00,62.8,48.7,29.77,WSW,255,0.0,3.0,60,0.00,,,0.00,meteohub,2013-08-27 04:07:00,
2013-08-26 22:12:00,62.4,48.7,29.77,WSW,255,0.0,3.0,61,0.00,,,0.00,meteohub,2013-08-27 04:12:00,
2013-08-26 22:16:00,62.2,48.6,29.77,WSW,255,0.0,2.0,61,0.00,,,0.00,meteohub,2013-08-27 04:16:00,
2013-08-26 22:22:00,62.2,48.6,29.77,WSW,255,4.0,4.0,61,0.00,,,0.00,meteohub,2013-08-27 04:22:00,
2013-08-26 22:28:00,62.1,48.9,29.77,WSW,255,4.0,6.0,62,0.00,,,0.00,meteohub,2013-08-27 04:28:00,
2013-08-26 22:34:00,61.9,48.7,29.77,WSW,255,2.0,7.0,62,0.00,,,0.00,meteohub,2013-08-27 04:34:00,
2013-08-26 22:40:00,61.3,48.2,29.77,WSW,255,2.0,7.0,62,0.00,,,0.00,meteohub,2013-08-27 04:40:00,
2013-08-26 22:46:00,61.0,48.4,29.78,WSW,255,0.0,4.0,63,0.00,,,0.00,meteohub,2013-08-27 04:46:00,
2013-08-26 22:52:00,60.6,48.0,29.78,WSW,255,0.0,4.0,63,0.00,,,0.00,meteohub,2013-08-27 04:52:00,
2013-08-26 22:58:00,60.3,48.0,29.78,WSW,255,2.0,3.0,64,0.00,,,0.00,meteohub,2013-08-27 04:58:00,
2013-08-26 23:04:00,60.3,47.7,29.78,WSW,255,4.0,4.0,63,0.00,,,0.00,meteohub,2013-08-27 05:04:00,
2013-08-26 23:10:00,60.4,47.3,29.78,WSW,255,3.0,5.0,62,0.00,,,0.00,meteohub,2013-08-27 05:10:00,
2013-08-26 23:16:00,61.0,47.5,29.79,WSW,255,3.0,5.0,61,0.00,,,0.00,meteohub,2013-08-27 05:16:00,
2013-08-26 23:22:00,61.0,46.9,29.79,WSW,255,3.0,4.0,60,0.00,,,0.00,meteohub,2013-08-27 05:22:00,
2013-08-26 23:28:00,61.0,46.9,29.79,WSW,255,2.0,6.0,60,0.00,,,0.00,meteohub,2013-08-27 05:28:00,
2013-08-26 23:34:00,61.2,46.8,29.79,WSW,255,1.0,6.0,59,0.00,,,0.00,meteohub,2013-08-27 05:34:00,
2013-08-26 23:40:00,60.8,46.8,29.79,WSW,255,0.0,6.0,60,0.00,,,0.00,meteohub,2013-08-27 05:40:00,
2013-08-26 23:46:00,60.4,46.9,29.80,WSW,255,0.0,6.0,61,0.00,,,0.00,meteohub,2013-08-27 05:46:00,
2013-08-26 23:52:00,60.1,46.6,29.80,WSW,255,1.0,4.0,61,0.00,,,0.00,meteohub,2013-08-27 05:52:00,
2013-08-26 23:58:00,59.9,46.8,29.80,WSW,255,1.0,3.0,62,0.00,,,0.00,meteohub,2013-08-27 05:58:00,